Vorticity
-0 2 6 3 8 4 2 3 2 6 -4 3 5 7 4 6 8 7 5 3 -2 5 -3 8 7 1 3 5 7 8 8 8 8 8 9 8 8 7 5 2 -2 -8 -8
-0 6 1 2 1 8 -3 5 -4 -1 4 9 6 13 12 0 4 9 6 4 4 6 3 4 1 2 4 2 2 3 4 4 4 4 4 4 4 5 5 5 6 6 5
10 -1 6 4 19 -7 29 11 3 8 5 13 1 13 5 19 24 24 10 -9 -2 16 3 17 9 4 5 7 7 2 6 0 0 3 2 1 2 3 3 4 4 4 4
6 5 5 -0 1 7 -0 3 -0 22 9 43 9 14 19 -10 1 5 8 -4 -11 -8 3 -1 -5 -3 10 1 1 3 7 6 9 9 9 8 7 7 6 5 3 2 3
6 4 4 11 16 1 31 18 35 9 13 8 -4 2 21 7 8 2 4 10 11 10 9 11 10 7 7 8 8 8 7 7 7 7 7 8 8 8 7 7 7 7 7
5 6 8 2 6 -2 -11 -3 -11 -7 2 3 11 -3 2 9 7 6 6 6 6 6 7 7 7 8 7 6 7 7 7 7 7 7 7 7 7 8 8 8 8 8 8
3 4 7 7 5 8 7 2 8 14 4 8 8 7 6 6 6 6 7 7 7 7 7 7 7 7 7 6 6 7 7 7 8 8 8 7 7 6 6 6 6 7 7
12 9 5 10 7 6 5 10 4 11 7 3 5 6 7 7 6 6 7 7 7 7 6 6 6 6 6 7 7 7 7 7 7 6 6 6 6 6 6 6 6 7 7
-4 2 10 10 7 7 8 7 9 9 7 8 8 5 8 4 6 7 7 6 6 6 6 6 6 7 7 7 7 7 6 6 6 5 5 5 5 5 5 5 5 5 5
12 20 9 12 9 10 7 8 7 6 7 6 7 7 8 8 8 10 7 6 6 6 7 7 8 8 7 7 5 5 4 4 5 5 5 5 4 4 5 6 6 6 6
27 17 -1 8 14 10 9 7 8 6 5 4 5 6 7 6 7 6 6 9 8 8 7 7 7 6 5 5 5 5 4 4 5 5 5 5 6 8 9 9 8 7 5
16 2 12 14 12 10 8 6 4 5 6 7 6 6 5 5 6 7 9 7 6 7 6 6 6 6 6 5 5 5 5 5 5 5 6 7 8 8 8 7 6 7 6
12 -2 11 10 9 9 8 8 8 7 7 6 5 6 7 7 8 8 7 6 5 6 6 6 6 6 6 6 6 6 4 5 6 8 9 9 9 8 7 6 5 4 5
4 12 11 10 9 8 8 7 8 7 5 6 6 6 5 6 6 7 7 8 9 7 7 7 6 5 6 5 3 4 6 7 8 9 10 9 8 7 5 5 5 5 6
4 9 9 12 11 9 7 8 7 6 6 5 4 6 5 7 6 7 6 7 7 7 7 7 6 6 5 4 5 5 6 7 8 7 8 6 5 5 6 6 5 6 7
9 1 10 10 10 9 10 8 7 7 6 6 6 6 6 6 7 6 7 6 6 7 7 5 6 4 5 5 4 4 5 6 9 8 8 6 5 5 5 5 6 7 9
13 12 -2 5 9 10 10 10 10 9 9 8 7 6 7 7 6 6 7 8 8 8 7 8 5 4 6 6 3 4 7 8 7 8 7 7 6 6 6 6 7 9 11
13 15 10 3 -1 -1 2 10 12 11 10 9 8 8 7 7 8 9 7 6 6 8 7 5 4 6 4 2 2 8 8 8 8 8 7 7 6 5 6 7 9 10 9
15 17 14 11 5 3 2 -5 16 15 12 9 9 7 10 12 9 9 9 6 4 2 2 2 1 -1 -2 8 9 9 9 9 8 7 7 6 5 6 8 9 10 9 9
18 15 15 19 18 16 9 4 1 -0 5 5 7 9 8 5 3 2 3 1 2 4 6 8 10 11 8 7 7 7 8 7 7 7 6 6 7 7 8 9 8 7 7
6 7 13 16 15 17 17 16 13 8 4 -0 -7 -9 -8 -6 2 7 6 7 8 8 9 10 8 9 8 7 6 6 4 3 7 8 6 7 7 7 8 7 7 7 6
15 13 8 5 7 10 12 13 13 10 9 6 6 5 6 10 9 11 9 3 3 7 9 9 8 10 11 9 10 9 9 8 6 7 5 7 7 8 7 8 8 7 7
9 10 13 14 14 13 10 8 9 12 14 16 16 17 16 14 9 6 7 10 9 8 3 5 6 6 8 11 12 10 10 8 6 7 7 7 7 7 7 7 7 5 6
7 6 7 8 9 10 11 11 11 12 12 11 9 10 10 10 10 11 9 7 5 6 9 11 10 12 8 8 9 9 7 7 7 6 7 5 5 6 6 6 7 6 6
9 12 14 12 9 8 9 10 10 10 9 9 9 9 9 8 8 8 9 9 8 9 9 8 8 8 9 11 9 8 8 9 7 6 6 5 7 8 8 7 6 7 7
7 7 6 6 9 12 13 12 12 12 13 11 13 12 11 12 12 12 12 11 11 10 10 11 11 10 9 8 9 10 11 10 5 4 5 7 8 9 9 7 9 9 11
Height
3121 3125 3127 3129 3132 3134 3136 3139 3142 3145 3147 3150 3152 3154 3157 3158 3161 3163 3165 3167 3169 3172 3175 3176 3178 3179 3179 3181 3182 3183 3183 3184 3186 3187 3188 3188 3189 3190 3190 3191 3191 3192 3192
3118 3122 3125 3127 3129 3130 3133 3135 3138 3141 3143 3146 3149 3151 3153 3154 3157 3159 3161 3164 3166 3169 3171 3173 3175 3177 3178 3179 3180 3181 3182 3183 3184 3185 3185 3186 3187 3187 3188 3188 3189 3190 3190
3113 3117 3120 3122 3125 3126 3128 3131 3133 3135 3138 3141 3144 3147 3149 3151 3152 3155 3159 3161 3163 3165 3167 3169 3170 3172 3174 3174 3176 3177 3179 3180 3181 3182 3183 3183 3184 3185 3185 3185 3186 3187 3188
3108 3111 3114 3117 3120 3120 3123 3125 3127 3128 3133 3134 3139 3143 3143 3145 3149 3150 3152 3154 3155 3159 3161 3163 3165 3168 3170 3171 3172 3173 3174 3176 3177 3177 3178 3179 3179 3180 3181 3182 3183 3184 3185
3102 3105 3108 3112 3114 3116 3119 3121 3123 3127 3129 3132 3135 3138 3141 3143 3145 3146 3148 3151 3152 3155 3157 3160 3161 3163 3164 3165 3167 3168 3169 3171 3172 3173 3174 3175 3176 3176 3177 3178 3178 3179 3180
3095 3099 3103 3106 3107 3111 3115 3116 3116 3118 3123 3128 3131 3134 3135 3138 3140 3142 3144 3147 3149 3151 3153 3155 3157 3158 3159 3160 3162 3164 3165 3166 3167 3168 3169 3170 3171 3172 3172 3173 3174 3175 3175
3089 3092 3095 3099 3103 3106 3109 3110 3113 3116 3120 3123 3126 3128 3130 3132 3134 3137 3139 3141 3143 3145 3148 3150 3151 3153 3154 3156 3157 3158 3160 3161 3163 3163 3164 3165 3166 3167 3168 3169 3169 3170 3171
3081 3085 3088 3092 3096 3099 3101 3104 3107 3110 3113 3116 3120 3122 3124 3127 3129 3131 3133 3135 3138 3140 3142 3144 3146 3148 3149 3150 3152 3153 3155 3156 3157 3159 3160 3161 3162 3163 3163 3164 3164 3165 3166
3072 3077 3080 3084 3087 3090 3094 3097 3101 3104 3107 3111 3113 3116 3117 3119 3124 3125 3127 3130 3132 3135 3137 3139 3140 3142 3144 3145 3146 3148 3149 3151 3152 3153 3155 3156 3156 3157 3158 3159 3160 3160 3160
3063 3066 3072 3074 3079 3082 3085 3089 3093 3096 3101 3103 3106 3109 3111 3115 3116 3120 3121 3123 3126 3128 3130 3132 3134 3136 3138 3139 3141 3142 3143 3144 3146 3147 3148 3149 3150 3151 3152 3153 3153 3154 3154
3052 3059 3061 3066 3071 3074 3078 3081 3085 3089 3093 3095 3098 3102 3104 3107 3110 3113 3114 3117 3119 3121 3123 3125 3127 3129 3131 3133 3134 3135 3136 3138 3139 3140 3140 3141 3143 3144 3145 3145 3145 3146 3147
3041 3047 3053 3057 3061 3065 3069 3073 3077 3080 3084 3087 3091 3093 3096 3099 3103 3106 3108 3110 3112 3114 3116 3118 3120 3121 3123 3125 3127 3129 3130 3131 3132 3132 3133 3134 3135 3136 3137 3138 3138 3138 3139
3027 3034 3042 3047 3052 3056 3061 3064 3068 3071 3075 3079 3082 3085 3088 3092 3095 3097 3100 3102 3104 3106 3108 3111 3112 3114 3115 3117 3119 3121 3122 3123 3124 3124 3125 3126 3127 3128 3128 3129 3129 3130 3130
3013 3018 3027 3035 3042 3046 3050 3054 3058 3064 3066 3069 3072 3076 3079 3082 3086 3088 3091 3095 3095 3097 3099 3102 3104 3105 3107 3108 3110 3112 3113 3114 3115 3116 3117 3118 3119 3120 3121 3121 3120 3120 3120
3000 3006 3014 3022 3029 3034 3039 3043 3049 3052 3055 3059 3063 3066 3069 3072 3077 3079 3081 3084 3086 3088 3090 3093 3095 3096 3097 3098 3101 3103 3104 3105 3106 3107 3108 3109 3110 3110 3110 3110 3110 3110 3110
2992 2996 3002 3010 3016 3021 3027 3032 3037 3040 3044 3048 3052 3056 3058 3062 3066 3068 3071 3075 3077 3079 3081 3084 3086 3088 3088 3088 3090 3091 3093 3094 3095 3095 3096 3097 3098 3099 3099 3099 3099 3100 3100
2985 2988 2992 2999 3005 3010 3015 3020 3025 3028 3032 3036 3041 3044 3047 3051 3055 3056 3060 3063 3065 3068 3070 3072 3074 3076 3077 3078 3079 3081 3081 3083 3083 3084 3085 3085 3086 3087 3086 3087 3088 3089 3089
2978 2981 2984 2989 2993 2997 3003 3008 3013 3018 3022 3025 3029 3032 3036 3039 3042 3045 3049 3051 3054 3056 3059 3061 3063 3065 3066 3068 3068 3070 3071 3072 3073 3074 3074 3075 3075 3075 3076 3076 3077 3077 3078
2973 2976 2979 2981 2983 2987 2992 2998 3002 3006 3010 3013 3017 3021 3024 3027 3031 3035 3038 3040 3043 3045 3048 3050 3051 3052 3054 3056 3058 3059 3060 3060 3061 3062 3062 3062 3062 3063 3064 3064 3065 3065 3065
2966 2970 2973 2976 2980 2983 2985 2987 2990 2994 2999 3003 3006 3010 3014 3017 3020 3023 3025 3028 3029 3031 3034 3036 3039 3041 3043 3045 3046 3048 3048 3048 3049 3049 3050 3050 3050 3051 3051 3051 3051 3052 3053
2957 2960 2963 2967 2971 2975 2979 2982 2985 2988 2990 2993 2997 3000 3004 3007 3008 3010 3013 3016 3018 3020 3022 3024 3027 3030 3031 3033 3034 3034 3034 3036 3035 3035 3036 3036 3037 3038 3039 3039 3039 3039 3039
2950 2952 2954 2956 2959 2963 2967 2970 2974 2977 2980 2983 2986 2989 2992 2995 2996 2999 3001 3004 3007 3010 3012 3013 3015 3016 3017 3020 3022 3021 3021 3022 3022 3019 3022 3023 3022 3024 3025 3025 3025 3024 3024
2940 2941 2943 2946 2949 2952 2955 2958 2960 2962 2965 2968 2971 2974 2977 2980 2984 2987 2989 2992 2994 2996 2998 3000 2999 3001 3002 3007 3006 3006 3007 3007 3008 3009 3008 3009 3012 3011 3011 3011 3010 3010 3010
2930 2931 2933 2935 2937 2940 2943 2946 2948 2949 2949 2952 2955 2959 2962 2966 2969 2973 2975 2977 2979 2981 2983 2984 2985 2988 2989 2990 2991 2992 2994 2993 2994 2995 2995 2994 2997 2998 2997 2996 2995 2993 2995
2918 2920 2922 2924 2926 2929 2931 2933 2935 2936 2937 2939 2942 2945 2949 2952 2955 2959 2960 2961 2963 2965 2968 2970 2972 2972 2972 2974 2976 2977 2978 2978 2978 2980 2981 2980 2981 2980 2981 2981 2980 2980 2979
2907 2908 2910 2912 2913 2915 2918 2921 2923 2923 2925 2928 2930 2931 2935 2938 2942 2944 2945 2945 2946 2950 2954 2956 2957 2959 2960 2960 2961 2958 2959 2960 2962 2963 2966 2965 2964 2964 2963 2961 2961 2963 2964